Regional Weather Roundup
Issued by NWS

Home | Current Version | Previous Version | Text Only | Print | Product List | Glossary On
Versions: 1 2 3 4 5 6 7 8 9 10 11 12 13 14 15 16 17 18 19 20 21 22 23 24 25 26 27 28 29 30 31 32 33 34 35 36 37 38 39 40 41 42 43 44 45 46 47 48 49 50
000
ASUS44 KOUN 290810
RWROK

WEATHER ROUNDUP FOR OKLAHOMA
NATIONAL WEATHER SERVICE NORMAN OK
300 AM CDT MON MAY 29 2017

NOTE: "FAIR" INDICATES FEW OR NO CLOUDS BELOW 12,000 FEET WITH NO
      SIGNIFICANT WEATHER AND/OR OBSTRUCTIONS TO VISIBILITY.

OKZ001>007-009>012-014-015-017-290900-
NORTHWEST OKLAHOMA AND THE PANHANDLE

CITY           SKY/WX    TMP DP  RH WIND       PRES   REMARKS
GAGE           CLEAR     54  47  77 CALM      30.11R
GUYMON         CLEAR     52  43  71 CALM      30.14S
ENID/WOODRING  CLEAR     55  54  94 CALM      30.04S
$$

OKZ016-021>023-033>039-044-045-290900-
SOUTHWEST OKLAHOMA

CITY           SKY/WX    TMP DP  RH WIND       PRES   REMARKS
LAWTON/REGL    CLOUDY    56  54  93 CALM        N/A
LAWTON/FT SILL PTCLDY    60  51  70 CALM      30.05F
FREDERICK      CLOUDY    65  46  50 SE7       30.04F
CLINTON        CLEAR     60  47  61 SW6       30.10F
HOBART         CLEAR     56  49  77 W5        30.09F
ALTUS AFB      CLEAR     55  45  69 NW3       30.07F
$$

OKZ018>020-024>031-290900-
CENTRAL OKLAHOMA

CITY           SKY/WX    TMP DP  RH WIND       PRES   REMARKS
OKLAHOMA CITY  CLOUDY    56  50  80 SW3       30.07R
OKC/WILEY POST CLOUDY    57  52  83 SW5       30.07R
OKC/TINKER AFB CLOUDY    63  51  66 SW5       30.06R
STILLWATER     CLEAR     55  51  86 W3        30.04S
GUTHRIE        CLOUDY    57  53  86 SW3       30.06R
$$

OKZ008-013-054>072-290900-
NORTHEAST OKLAHOMA

CITY           SKY/WX    TMP DP  RH WIND       PRES   REMARKS
TULSA          CLOUDY    61  57  87 CALM      30.01R
TULSA/JONES    CLOUDY    59  55  87 CALM      30.03R
PONCA CITY     CLEAR     60  50  69 SW5       30.03S
BARTLESVILLE   CLOUDY    64  52  64 W7        30.01F
MUSKOGEE       PTCLDY    61  60  97 S5        30.03S
$$

OKZ032-040>043-046>053-073>077-290900-
SOUTH CENTRAL/SOUTHEAST OKLAHOMA

CITY           SKY/WX    TMP DP  RH WIND       PRES   REMARKS
ARDMORE/DWNTWN CLOUDY    63  61  94 CALM      30.05S
MCALESTER      CLOUDY    61  58  90 CALM      30.04R
$$




USA.gov is the U.S. government's official web portal to all federal, state and local government web resources and services.